JTC427 LTFM-LTBS

Flight info

Callsign JTC427
Flight time N/A
Altitude 45000
Route RATVU1D/35L RATVU UT35 NUMTI/N0473F430 DCT KULAR/N0472F410 UT44 ATSAL
Aircraft C700/M-SBDGHM1RWXY/LB2

Departure

Time 2026-05-05 10:44
Airport İstanbul Airport (LTFM)

Arrival

Time N/A
Airport Dalaman International Airport (LTBS)
Time Latitude Longitude Altitude Speed Heading
2026-05-05 10:13 41.25544 28.73644 328 ft 0 kts 89°
2026-05-05 10:34 41.25544 28.73633 326 ft 4 kts 86°
2026-05-05 10:34 41.25538 28.73599 328 ft 4 kts 57°
2026-05-05 10:34 41.25521 28.73581 327 ft 3 kts
2026-05-05 10:34 41.25514 28.73581 327 ft 0 kts 359°
2026-05-05 10:39 41.25526 28.73581 326 ft 6 kts 358°
2026-05-05 10:39 41.25592 28.73578 326 ft 10 kts 352°
2026-05-05 10:39 41.25611 28.73505 328 ft 10 kts 268°
2026-05-05 10:39 41.25609 28.73396 328 ft 14 kts 270°
2026-05-05 10:40 41.25608 28.73264 328 ft 9 kts 269°
2026-05-05 10:40 41.25612 28.73164 328 ft 12 kts 293°
2026-05-05 10:40 41.25688 28.73133 328 ft 13 kts 359°
2026-05-05 10:40 41.25791 28.73131 325 ft 16 kts 359°
2026-05-05 10:41 41.25888 28.73129 328 ft 15 kts 360°
2026-05-05 10:41 41.25998 28.73127 326 ft 16 kts 358°
2026-05-05 10:41 41.26114 28.73123 328 ft 18 kts 359°
2026-05-05 10:41 41.26153 28.73122 328 ft 6 kts 359°
2026-05-05 10:42 41.26214 28.73011 328 ft 12 kts 269°
2026-05-05 10:42 41.26214 28.72882 328 ft 16 kts 270°
2026-05-05 10:42 41.26215 28.72723 328 ft 19 kts 271°
2026-05-05 10:43 41.26217 28.72549 328 ft 10 kts 302°
2026-05-05 10:43 41.26285 28.72524 326 ft 12 kts 358°
2026-05-05 10:43 41.26493 28.72518 327 ft 57 kts 359°
2026-05-05 10:43 41.27057 28.72499 332 ft 104 kts 357°
2026-05-05 10:44 41.27874 28.72475 522 ft 143 kts 359°
2026-05-05 10:44 41.29006 28.72464 1176 ft 179 kts
2026-05-05 10:44 41.29873 28.72448 1809 ft 197 kts 359°